Location: Clanezzo
(45.7500°N, 9.6000°E)
Time: 08:19:08
(UTC+00:00)

CUTE-I - Pass Details

Date: 09 December 2023
Orbit: 807 x 822 km, 98.7° (Epoch: 23 February)

Event Time Altitude Azimuth Distance (km) Brightness Sun altitude
Rises 05:26:11 0° 17° (NNE) 3,364 ? -14.0°
Reaches altitude 10° 05:28:36 10° 22° (NNE) 2,429 ? -13.6°
Maximum altitude 05:33:53 57° 101° (E) 969 ? -12.8°
Drops below altitude 10° 05:39:09 10° 179° (S) 2,415 ? -11.9°
Sets 05:41:32 0° 184° (S) 3,344 ? -11.5°
